User: anonymous   Login
Location: Unspecified
(0.0000°N, 0.0000°E)
Time: 10:16:07
(UTC+00:00)
Language:

DIY-1/ARDUIQUBE - Orbit

View from above orbital plane
View from above orbital plane
View from above satellite
View from above satellite

Ground track
Ground track

The orbit data is extracted from the following two-line orbital elements,

1 47963U 21022AH  21342.70064958  .00002671  00000-0  17429-3 0  9999
2 47963  97.5451 241.9237 0020868  69.5432 290.8035 15.08542374 38156
Epoch (UTC): 08 December 2021 16:48:56
Eccentricity: 0.0020868
inclination: 97.5451°
perigee height: 526 km
apogee height: 555 km
right ascension of ascending node: 241.9237°
argument of perigee: 69.5432°
revolutions per day: 15.08542374
mean anomaly at epoch: 290.8035°
orbit number at epoch: 3815

The dashed part of the orbit path shows where the satellite is in the earth's shadow,  

DLR